Location: Unspecified
(0.0000°N, 0.0000°E)
Time: 20:30:29
(UTC+02:00)

ARIANE DEB (SPELDA) - Visible Passes

Search period start: 17 October 2017 00:00
Search period end: 27 October 2017 00:00
Orbit: 340 x 32854 km, 3.8° (Epoch: 17 October)

Date Brightness Start Highest point End Pass type
(mag) Time Alt. Az. Time Alt. Az. Time Alt. Az.
17 Oct 9.5 16:57:07 10° E 19:13:24 19° E 20:27:12 10° E visible
17 Oct 10.8 23:11:27 10° W 00:15:46 16° W 02:02:10 10° W visible
18 Oct 3.5 07:00:32 11° W 07:14:43 68° N 07:18:00 10° ENE visible
18 Oct 7.3 17:19:00 10° W 21:17:44 86° S 02:19:52 10° E visible
19 Oct 9.4 16:34:16 10° E 19:22:05 23° E 20:43:38 10° E visible
19 Oct 10.8 23:35:46 10° W 00:24:19 13° W 01:33:11 10° W visible
20 Oct 3.3 07:11:14 10° W 07:23:40 65° N 07:26:43 10° ENE visible
20 Oct 7.1 17:28:10 10° W 20:52:08 86° S 02:28:55 10° E visible
21 Oct 5.2 12:28:51 10° WNW 19:30:49 26° E 20:54:36 12° E visible
22 Oct 3.1 07:22:22 10° W 07:32:35 61° N 07:35:26 10° ENE visible
22 Oct 7.0 17:37:22 10° W 20:19:35 86° S 02:37:54 10° E visible
23 Oct 5.3 12:37:32 10° W 19:39:36 30° E 21:04:44 14° E visible
24 Oct 6.9 17:46:37 10° W 19:28:34 86° SSW 02:46:49 10° E visible
25 Oct 5.5 12:46:12 10° W 19:48:26 33° E 21:14:46 17° E visible
